Timeline UpdatesTrip UpdatesNews PostsPvt PostsTravel TipsAdmin PostsConv PostsFollowed PostsChat RequestsBlog PostsPNR Posts

Disclaimer
Search
 
 
Sat Jul 26, 2014 04:34:41 ISTHomeTrainsΣChainsAtlasPNRForumGalleryNewsFAQTripsMembersLoginFeedback
No Recent News for this Train
Other Trains in the News **new
Latest...
Short Termination at Manikpur from 14/4/14-18/5/14 and from 26/5/14-30/5/14 #1092793
Sun May 11, 2014 (12:43PM)
⇐ Return Journey: Train# 51190

51189/Itarsi Allahabad Passenger (UnReserved)

Sep 19 2013 (5:43PM)
Change Departure Station:
Change Arrival Station:
Post a Train Travel TipPost a Train Travel Tip **new
Post a Comment/Question/Picture/VideoPost a Comment/Question/Picture/Video
Pantry/Catering
???
RSA - Rake Sharing
RSA with 51158 ET-BSL Passenger
Rake/Coach Composition
Loco
WDM 2A ET/KATNI Shed
News    PNR    Forum    Time-Table    Availability    Fare Chart    Map    Arr/Dep History    Trips    Gallery    ΣChains    X/O    Timeline    
Travel Time: 5h 42m    18 halts    Distance: 150 km    Avg Speed: 26 km/hr
Type: Passenger
Zone: CR/Central
Departs @ 04:23
Platform# ???
SMTWTFS
Khutaha/KTHA 
Arrives @ 10:05
Platform# ???
SMTWTFS
Allahabad Junction/ALD 

18 halts. 20 intermediate Stations between Khutaha and Allahabad Junction

Show ALL intermediate Stations  Show Old Time-Table

#CodeStation NameX/OArrivesAvgDepartsAvgHaltPFDay#KmSpeedElevZoneAddress
1ETItarsi Junction (7)  -08:30---1-461.770329mWCRItarsi 461111, Madhya Pradesh
2GROGurra (2)X  08:39-08:41-2m--1-451.260327mWCRItarsi, Madhya Pradesh
3SQLSontalai (2)  08:50-08:52-2m--1-442.246329mWCRItarsi, Madhya Pradesh
4BGTABagratawa (2)X  09:01-09:03-2m--1-435.371338mWCRBagra Tawa, Madhya Pradesh
5GMDGuramkhedi (2)X  09:14-09:16-2m--1-422.260337mWCRGuramkhedi, Madhya Pradesh
6SGPSohagpur (2)X  09:26-09:28-2m--1-412.268340mWCRSohagpur, Madhya Pradesh
7SXFSobhapur (2)O  09:36-09:39-3m--1-403.147338mWCRState Highway 22, Madhya Pradesh
8PPIPipariya (3)XO  09:50-09:52-2m11-394.563338mWCRPiparia, Madhya Pradesh
9BKHBankhedi (2)X  10:10-10:12-2m--1-375.638351mWCRBankheri, Madhya Pradesh
10JHTJunehta (2)XO  10:22-10:24-2m--1-369.268353mWCRState Highway 22, Madhya Pradesh
11SCKRSalichauka Road (2)XO  10:33-10:35-2m--1-359.036355mWCRGadarwara, Madhya Pradesh
12GARGadarwara (2)  10:58-11:00-2m11-345.197352mWCRNarsinghpur, Madhya Pradesh
13BNEBohani (2)X  11:08-11:10-2m--1-332.268361mWCRNarsinghpur, Madhya Pradesh
14KFYKarapgaon (2)O  11:16-11:19-3m--1-325.455363mWCRNational Highway 26, Madhya Pradesh
15KYKareli (2)XO  11:28-11:30-2m11-317.218361mWCRKareli, Madhya Pradesh
16NUNarsinghpur (2)X  12:25-12:30-5m11-300.839365mWCRNarsimhapur, Madhya Pradesh
17GPCGhatpindrai (2)  12:39-12:40-1m--1-295.037366mWCRGhatpindra, Madhya Pradesh
18BELDBelkhera (2)X  12:49-12:50-1m--1-289.5131367mWCRState Highway 22, Madhya Pradesh
19KKBKarak Bel (2)XO  12:52-12:53-1m--1-285.111375mWCRKarak Bel, Madhya Pradesh
20SRIDShridham (3)X  14:20-14:25-5m21-269.865373mWCRShridham, Madhya Pradesh
21BMRBikrampur (2)  14:36-14:37-1m--1-257.958353mWCRBikrampur Dist Narsingpur., Madhya Pradesh
22BHTNBhitoni (2)  14:49-14:50-1m--1-246.379377mWCRJabalpur, Madhya Pradesh
23BRGTBheraghat (2)X  15:00-15:02-2m--1-233.224389mWCRBheraghat, Madhya Pradesh
24MMLMadan Mahal (3)XO  15:35-17:25-110m31-220.121428mWCRJabalpur, Madhya Pradesh
25JBPJabalpur Junction (4)X  17:35-17:50-15m--1-216.540416mWCRJabalpur, Madhya Pradesh
26ADTLAdhartal (2)X  18:02-18:03-1m--1-208.653393mWCRJabalpur, Madhya Pradesh
27DOEDeori (2)  18:13-18:14-1m--1-199.857392mWCRJabalpur, Madhya Pradesh
28GSPRGosalpur (2)XO  18:25-18:26-1m--1-189.214396mWCRJabalpur, Madhya Pradesh
29SHRSihora Road (2)X  19:12-19:14-2m--1-178.169388mWCRJabalpur, Madhya Pradesh
30DDCEDundi (2)  19:27-19:28-1m--1-163.244415mWCRDundi, Madhya Pradesh
31SBDSleemanabad Road (2)  19:41-19:42-1m--1-153.752434mWCRSleemanabad, Madhya Pradesh
32SNRRSansarpur (2)  19:50-19:52-2m--1-146.852436mWCRNational Highway 7, Madhya Pradesh
33NWRNiwar (2)X  20:01-20:02-1m--1-139.060412mWCRPipraundh, Madhya Pradesh
34MDRRMadhavnagar Road (2)O  20:10-20:12-2m--1-131.06398mWCRMadhavnagar, Madhya Pradesh
35KTEKatni Junction (6)X  21:05-21:25-20m--1-125.960387mWCRKatni, Madhya Pradesh
36PTWAPatwara (2)X  21:34-21:35-1m--1-116.956398mWCRNational Highway 34 Distric Katni Madhya Pradesh, Madhya Pradesh
37JKEJukehi (3)X  21:44-21:45-1m--1-108.559402mWCRJukehi, Madhya Pradesh
38PKRDPakara Road (2)X  21:55-21:56-1m--1-98.758381mWCRPakara, Madhya Pradesh
39UDRAmdara (2)  22:06-22:07-1m--1-89.063376mWCRNational Highway 34, Madhya Pradesh
40BUUBhadanpur (2)XO  22:19-22:20-1m--1-76.416362mWCRNational Highway 7, Madhya Pradesh
41MYRMaihar (3)X  23:09-23:10-1m--1-62.961353mWCRMaihar Railway Station, Madhya Pradesh
42UHRUnchhera (2)X  23:24-23:25-1m--1-48.741331mWCRUnchhera, Madhya Pradesh
43LGCELagargawan (2)  23:39-23:40-1m--1-39.19319mWCRLagargawan, Madhya Pradesh
44STASatna Junction (3)XO  01:00-03:50-170m32-27.654322mWCRSatna, Madhya Pradesh
45SAGMSagma (1)X  03:57-03:58-1m12-21.359337mWCRSatna, Madhya Pradesh
46JTWJaitwar (2)  04:12-04:13-1m--2-7.550321mWCRJaitwar, Madhya Pradesh
47KTHA»Khutaha»X  04:22-04:23-1m--20.056332mWCRMDR 11, Madhya Pradesh
48CTHRChitahraX  04:31-04:32-1m--27.543367mWCRMDR 11, Madhya Pradesh
49MJGMajhagawanX  04:40-04:41-1m--213.253343mWCRMajhgawa, Madhya Pradesh
50TKYRTikaria (2)  04:56-04:57-1m--226.447268mWCRMDR 11, Madhya Pradesh
51MKDMarkundiX  05:07-05:08-1m--234.330270mWCRState Highway 11, Madhya Pradesh
52BNSPBansapahar (1)XO  05:33-05:34-1m1246.65253mWCRBansapahar, Uttar Pradesh
53MKPManikpur Junction (4)X  06:15-06:25-10m--250.273250mNCRManikpur, Uttar Pradesh
54PNHIPanhaiX  06:35-06:36-1m--262.357214mNCRManikpur, Uttar Pradesh
55DBRDabhaura (2)  06:47-06:48-1m--272.761201mNCRDabhaura, Uttar Pradesh
56KTDDKataiya Dandi  06:58-06:59-1m--282.947168mNCRKataiya, Uttar Pradesh
57BRGBargarh  07:06-07:08-2m--288.447166mNCRBargarh, Uttar Pradesh
58MJHRMajhiari  07:17-07:19-2m--295.558145mNCRNational Highway 76, Uttar Pradesh
59SRJShankargarh (3)X  07:29-07:31-2m--2105.160132mNCRShankargarh, Uttar Pradesh
60LOGLohgara (2)  07:41-07:43-2m--2115.154112mNCRLohgara, Uttar Pradesh
61MFXMadaraha  07:50-07:52-2m--2121.450103mNCRNational Highway 76, Uttar Pradesh
62JSRJasra (2)X  07:59-08:01-2m--2127.22197mNCRJasra, Uttar Pradesh
63IDGJIradatganj (3)O  08:18-08:20-2m--2133.2899mNCRAllahabad, Uttar Pradesh
64LKJNLink Junction Cabin  08:58-09:00-2m--2138.1894mNCRAllahabad, Uttar Pradesh
65NYNNaini Junction (4)  09:35-09:40-5m42142.61798mNCRAllahabad, Uttar Pradesh
66ALD•Allahabad Junction (10)•  10:05----2149.7-100mNCRAllahabad 211003, Uttar Pradesh
Scroll to Top
Scroll to Bottom